TimeCST,TemperatureF,Dew PointF,Humidity,Sea Level PressureIn,VisibilityMPH,Wind Direction,Wind SpeedMPH,Gust SpeedMPH,PrecipitationIn,Events,Conditions,WindDirDegrees,DateUTC
12:53 AM,61.0,59.0,93,30.07,10.0,North,3.5,-,0.04,,Mostly Cloudy,10,2012-11-04 05:53:00
1:53 AM,61.0,59.0,93,30.09,10.0,WSW,3.5,-,0.01,,Overcast,240,2012-11-04 06:53:00
1:53 AM,60.1,59.0,96,30.07,10.0,NNW,3.5,-,0.00,,Scattered Clouds,330,2012-11-04 07:53:00
2:53 AM,57.9,55.0,90,30.09,10.0,North,5.8,-,N/A,,Scattered Clouds,350,2012-11-04 08:53:00
3:53 AM,55.9,53.1,90,30.08,10.0,North,3.5,-,N/A,,Scattered Clouds,360,2012-11-04 09:53:00
4:53 AM,55.0,51.1,86,30.12,9.0,NNW,8.1,-,N/A,,Mostly Cloudy,330,2012-11-04 10:53:00
5:53 AM,53.1,51.1,93,30.11,8.0,Calm,Calm,-,0.00,Rain,Light Rain,0,2012-11-04 11:53:00
6:53 AM,52.0,48.9,89,30.16,7.0,NNW,6.9,-,0.00,Rain,Light Rain,330,2012-11-04 12:53:00
7:53 AM,52.0,48.9,89,30.17,8.0,NW,3.5,-,N/A,,Scattered Clouds,320,2012-11-04 13:53:00
8:06 AM,51.8,48.2,88,30.16,8.0,North,5.8,-,N/A,,Mostly Cloudy,360,2012-11-04 14:06:00
8:36 AM,51.8,48.2,88,30.17,8.0,North,6.9,-,N/A,,Partly Cloudy,350,2012-11-04 14:36:00
8:53 AM,53.1,48.9,86,30.16,8.0,North,9.2,-,N/A,,Clear,360,2012-11-04 14:53:00
9:53 AM,55.9,50.0,80,30.16,10.0,North,9.2,-,N/A,,Clear,360,2012-11-04 15:53:00
10:53 AM,57.9,48.9,72,30.16,10.0,North,8.1,-,N/A,,Clear,10,2012-11-04 16:53:00
11:53 AM,60.1,46.9,62,30.15,10.0,NNE,6.9,-,N/A,,Clear,20,2012-11-04 17:53:00
12:53 PM,64.0,46.9,54,30.13,10.0,NNE,4.6,-,N/A,,Clear,20,2012-11-04 18:53:00
1:53 PM,64.0,46.0,52,30.11,10.0,NNW,6.9,-,N/A,,Clear,330,2012-11-04 19:53:00
2:53 PM,66.0,45.0,47,30.09,10.0,North,5.8,-,N/A,,Clear,10,2012-11-04 20:53:00
3:53 PM,64.9,41.0,42,30.10,10.0,North,8.1,-,N/A,,Clear,350,2012-11-04 21:53:00
4:53 PM,57.9,42.1,56,30.10,10.0,North,5.8,-,N/A,,Clear,360,2012-11-04 22:53:00
5:53 PM,50.0,44.1,80,30.12,10.0,North,3.5,-,N/A,,Clear,360,2012-11-04 23:53:00
6:53 PM,48.0,44.1,86,30.13,10.0,NNE,4.6,-,N/A,,Clear,30,2012-11-05 00:53:00
7:53 PM,45.0,43.0,93,30.14,10.0,Calm,Calm,-,N/A,,Clear,0,2012-11-05 01:53:00
8:53 PM,44.1,43.0,96,30.14,10.0,Calm,Calm,-,N/A,,Clear,0,2012-11-05 02:53:00
9:53 PM,42.1,42.1,100,30.14,9.0,Calm,Calm,-,N/A,,Clear,0,2012-11-05 03:53:00
10:53 PM,41.0,39.9,96,30.14,6.0,Calm,Calm,-,N/A,,Clear,0,2012-11-05 04:53:00